Location: Sternwarte ZA, Rosenfeld-Brittheim
(48.2889°N, 8.6789°E)
Time: 19:57:20
(UTC+02:00)

X-37B - Pass Details

Date: 02 October 2021
Orbit: 322 x 349 km, 45.0° (Epoch: 28 October)

Event Time Altitude Azimuth Distance (km) Brightness Sun altitude
Exits shadow 05:25:22 19° 137° (SE) 858 2.6 -20.6°
Drops below altitude 10° 05:26:24 10° 124° (SE) 1,232 3.6 -20.5°
Enters shadow 06:21:15 -71° 300° (WNW) 12,395 8.1 -11.6°
Sets 07:02:52 0° 149° (SSE) 2,055 4.7 -4.7°
